User: anonymous   Login
Location: Krasnoyarskiy Pitomnik
(51.1333°N, 71.6167°E)
Time: 18:58:10
(UTC+00:00)
Language:

deb Explorer IX - Orbit

View from above orbital plane
View from above orbital plane
View from above satellite
View from above satellite

Ground track
Ground track

The orbit data is extracted from the following two-line orbital elements,

1 00085U 61004C   24108.95662741  .00034067  00000-0  46078-2 0  9996
2 00085  38.7457 332.0119 0275674 251.2058 105.8608 14.55357150131607
Epoch (UTC): 17 April 2024 22:57:32
Eccentricity: 0.0275674
inclination: 38.7457°
perigee height: 513 km
apogee height: 903 km
right ascension of ascending node: 332.0119°
argument of perigee: 251.2058°
revolutions per day: 14.55357150
mean anomaly at epoch: 105.8608°
orbit number at epoch: 13160

The dashed part of the orbit path shows where the satellite is in the earth's shadow,  

DLR